Simultaneous Nadir Overpasses (SNOs) Predictions

Prediction of SNOs between AQUA and NPP Satellite Orbit:

Table of predicted SNOs for the next 14.0 days since TLE Epoch: 8/14/2015
Index Date (AQUA) Time (AQUA) Lat,Lon (AQUA) SZA (AQUA ) Date (NPP) Time (NPP) Lat,Lon (NPP) SZA (NPP ) Distance(km) Time Diff (sec)
1 08/15/2015 11:39:00 -69.84, 52.15 89.63 08/15/2015 11:38:20 -69.84, 52.11 89.58 1.47 40
2 08/15/2015 12:27:38 72.38,-136.17 87.72 08/15/2015 12:28:15 72.37,-136.24 87.70 2.66 37
3 08/18/2015 03:55:02 -71.22, 170.08 90.28 08/18/2015 03:54:45 -71.23, 170.10 90.27 1.00 17
4 08/18/2015 04:43:44 73.50, -18.09 87.30 08/18/2015 04:44:44 73.50, -18.06 87.24 1.01 60
5 08/20/2015 19:22:37 69.28, 115.51 92.55 08/20/2015 19:21:28 69.28, 115.55 92.61 1.54 69
6 08/20/2015
